This is the latest recevied weather packets stored in our database for station/object NW5W-12. If no packets are shown the sender has not sent any weather packets the latest 10 day(s).
| Time | Temp. | Humidity | Pressure | Rain* | Wind** | Luminosity | Snow |
|---|---|---|---|---|---|---|---|
| 1788077639 | 12.78° C | 96% | 1020 hPa | 0.76 mm | - | - | - |
| 1788077339 | 12.78° C | 97% | 1019.7 hPa | 0.25 mm | - | - | - |
| 1788077039 | 12.78° C | 97% | 1019.3 hPa | 0.25 mm | - | - | - |
| 1788076740 | 12.78° C | 97% | 1019 hPa | 0.25 mm | - | - | - |
| 1788076440 | 12.78° C | 97% | 1019.4 hPa | 0.25 mm | - | - | - |
| 1788076140 | 12.78° C | 96% | 1019.5 hPa | 0.25 mm | - | - | - |
| 1788075839 | 12.78° C | 96% | 1019.3 hPa | 0.25 mm | - | - | - |
| 1788075540 | 12.78° C | 96% | 1019.1 hPa | 0.25 mm | - | - | - |
| 1788075239 | 12.78° C | 96% | 1019.2 hPa | 0.25 mm | - | - | - |
| 1788074940 | 13.33° C | 96% | 1019.2 hPa | 0.25 mm | - | - | - |
| 1788074640 | 13.33° C | 96% | 1019 hPa | 0.25 mm | - | - | - |
| 1788074340 | 13.33° C | 96% | 1018.8 hPa | 0.25 mm | - | - | - |
| 1788074040 | 13.33° C | 96% | 1019 hPa | 0.25 mm | - | - | - |
| 1788073740 | 13.33° C | 95% | 1018.6 hPa | 0.25 mm | - | - | - |
| 1788073440 | 13.33° C | 95% | 1019.5 hPa | 0.51 mm | - | - | - |
| 1788073140 | 13.33° C | 94% | 1019.6 hPa | 0 mm | - | - | - |
| 1788072840 | 13.33° C | 93% | 1019.3 hPa | 0 mm | - | - | - |
| 1788072539 | 13.33° C | 93% | 1018.8 hPa | 0 mm | - | - | - |
| 1788072239 | 13.33° C | 91% | 1018.8 hPa | 0 mm | - | - | - |
| 1788071940 | 13.33° C | 88% | 1018.6 hPa | 0 mm | - | - | - |
| 1788071639 | 13.33° C | 84% | 1018.9 hPa | 0 mm | - | - | - |
| 1788071340 | 13.89° C | 80% | 1018.7 hPa | 0 mm | - | - | - |
| 1788071040 | 13.89° C | 79% | 1018.7 hPa | 0 mm | - | - | - |
| 1788070740 | 13.89° C | 78% | 1018.9 hPa | 0 mm | - | - | - |
| 1788070439 | 13.89° C | 72% | 1018.7 hPa | 0 mm | - | - | - |
* Rain since midnight (hover to see other rain measurements)
** Current wind speed in m/s (hover to see current wind gust speed)